Stations météo

Publicité
Calvi, France (7754): Température de l'air & dewpoint: 11.12.2017 03:00:00 - 17.12.2017 03:00:00 (CET)Calvi, France (7754): Température de l'air 5cm: 11.12.2017 03:00:00 - 17.12.2017 03:00:00 (CET)Calvi, France (7754): Vitesse du vent & gusts: 11.12.2017 03:00:00 - 17.12.2017 03:00:00 (CET)Calvi, France (7754): Direction du vent: 11.12.2017 03:00:00 - 17.12.2017 03:00:00 (CET)Calvi, France (7754): reduced air pressure: 11.12.2017 03:00:00 - 17.12.2017 03:00:00 (CET)Calvi, France (7754): visibility: 11.12.2017 03:00:00 - 17.12.2017 03:00:00 (CET)Calvi, France (7754): Ensoleillement: 11.12.2017 03:00:00 - 17.12.2017 03:00:00 (CET)Calvi, France (7754): Quantités de précipitations: 11.12.2017 03:00:00 - 17.12.2017 03:00:00 (CET)
Date & Time tt [°C] td [°C] tt 5cm [°C] ff [km/h] ff [knt] fx [km/h] fx [knt] dd ppp [hPa] vv [km] sd [min] rr [mm]
17.12.2017 03:00:00 3,1 -1,1 1,3 11 6 18 10 SSW 1015,1 60 0 0,0
17.12.2017 02:00:00 2,6 -1,0 1,7 9 5 17 9 SSW 1014,7 10 0 0,0
17.12.2017 01:00:00 4,1 -0,9 2,3 11 6 18 10 S 1014,5 60 0 0,0
17.12.2017 00:00:00 4,6 -0,2 2,5 10 6 19 10 SSW 1014,5 60 0 0,0
16.12.2017 23:00:00 3,7 -0,1 2,9 11 6 16 9 S 1013,9 60 0 0,0
16.12.2017 22:00:00 3,5 0,4 2,7 10 6 18 10 S 1013,3 51 0 0,0
16.12.2017 21:00:00 5,2 0,6 3,7 10 6 18 10 SSW 1012,9 60 0 0,0
16.12.2017 20:00:00 5,3 0,7 4,1 11 6 18 10 SSW 1012,6 60 0 0,0
16.12.2017 19:00:00 5,0 0,7 4,4 13 7 18 10 S 1011,8 58 0 0,0
16.12.2017 18:00:00 6,4 1,1 5,5 11 6 21 11 SSW 1010,6 48 0 0,0
16.12.2017 17:00:00 6,6 2,1 5,7 10 5 15 8 SSW 1009,8 60 0 0,0
16.12.2017 16:00:00 9,9 0,5 8,1 3 1 22 12 W 1008,9 60 25 0,0
16.12.2017 15:00:00 12,3 1,0 14,6 7 4 17 9 NW 1007,8 58 60 0,0
16.12.2017 14:00:00 11,5 3,0 10,2 9 5 14 7 SSW 1007,2 60 25 0,0
16.12.2017 13:00:00 10,1 2,2 9,8 5 3 39 21 - 1006,8 10 0 0,0
16.12.2017 12:00:00 10,3 2,6 10,2 14 8 34 18 S 1005,7 59 25 0,0
16.12.2017 11:00:00 10,3 2,1 9,2 17 9 44 24 SW 1005,9 60 8 0,0
16.12.2017 10:00:00 9,6 1,5 9,3 18 10 53 29 WSW 1005,5 60 0 0,0
16.12.2017 09:00:00 9,8 1,7 9,2 21 11 46 25 SW 1004,6 60 0 0,0
16.12.2017 08:00:00 9,8 1,7 9,0 18 10 41 22 SW 1004,3 60 0 0,0
16.12.2017 07:00:00 9,7 2,5 9,1 18 10 44 24 SSW 1004,3 10 0 0,0
16.12.2017 06:00:00 9,7 3,2 9,0 21 11 49 26 SSW 1004,3 10 0 0,0
16.12.2017 05:00:00 9,7 4,3 8,5 24 13 44 24 SSW 1004,2 10 0 0,0
16.12.2017 04:00:00 10,1 4,5 8,6 27 14 43 23 SSW 1004,1 50 0 0,0
16.12.2017 03:00:00 10,2 5,2 8,0 22 12 42 23 SSW 1004,0 49 0 0,0
16.12.2017 02:00:00 9,7 6,0 7,3 15 8 45 24 SSW 1003,7 49 0 1,2
16.12.2017 01:00:00 10,7 3,2 9,6 16 9 48 26 SW 1003,9 10 0 0,0
16.12.2017 00:00:00 11,4 3,9 10,4 20 11 47 26 SW 1003,9 60 0 0,0
15.12.2017 23:00:00 11,3 3,3 10,4 22 12 40 22 WSW 1003,9 10 0 0,0
15.12.2017 22:00:00 11,1 3,1 10,3 21 11 43 23 WSW 1003,5 57 0 0,0
15.12.2017 21:00:00 11,2 4,2 10,1 19 10 42 23 SSW 1002,8 52 0 0,0
15.12.2017 20:00:00 10,7 5,4 10,0 21 11 45 24 SSW 1002,0 10 0 0,0
15.12.2017 19:00:00 10,5 5,7 9,8 26 14 56 30 SSW 1001,5 58 0 0,0
15.12.2017 18:00:00 10,9 6,6 9,3 26 14 53 29 SW 1000,6 59 0 0,2
15.12.2017 17:00:00 10,8 7,3 10,0 24 13 38 20 SSW 999,9 57 0 0,0
15.12.2017 16:00:00 10,8 7,8 9,6 11 6 30 16 SSW 1000,5 60 0 1,0
15.12.2017 15:00:00 10,9 8,3 9,6 15 8 24 13 S 1000,9 7 0 2,4
15.12.2017 14:00:00 12,2 8,7 11,8 16 8 32 18 S 1000,6 46 0 0,0
15.12.2017 13:00:00 12,1 8,6 10,6 16 8 34 18 SSW 1001,4 60 0 0,0
15.12.2017 12:00:00 11,3 8,9 10,3 19 10 28 15 SSE 1002,2 15 0 1,4
15.12.2017 11:00:00 11,7 8,7 10,1 13 7 37 20 SW 1003,6 15 0 5,3
15.12.2017 10:00:00 13,2 10,7 11,6 11 6 28 15 SW 1003,2 4,5 0 2,0
15.12.2017 09:00:00 14,2 9,4 12,5 16 9 44 24 SW 1003,3 48 0 0,0
15.12.2017 08:00:00 14,5 9,1 13,1 22 12 40 21 SW 1003,3 10 0 0,0
15.12.2017 07:00:00 14,3 8,7 12,1 17 9 45 24 SSW 1003,6 60 0 0,0
15.12.2017 06:00:00 13,4 9,3 11,4 19 10 40 22 SSW 1004,0 60 0 0,0
15.12.2017 05:00:00 13,3 9,5 11,3 16 8 33 18 S 1005,7 9 0 0,4
15.12.2017 04:00:00 14,6 8,5 13,6 26 14 50 27 SSW 1006,7 10 0 0,0
15.12.2017 03:00:00 14,4 7,7 13,4 26 14 52 28 SSW 1007,4 10 0 0,0
15.12.2017 02:00:00 14,2 7,0 13,4 21 11 53 29 SSW 1007,3 10 0 0,0
15.12.2017 01:00:00 14,4 7,4 13,5 26 14 58 32 SSW 1007,8 10 0 0,0
15.12.2017 00:00:00 14,6 6,9 13,5 28 15 58 31 SSW 1008,3 10 0 0,0
14.12.2017 23:00:00 14,2 7,5 13,0 26 14 53 29 SSW 1008,9 10 0 0,0
14.12.2017 22:00:00 13,8 8,2 13,1 24 13 44 24 SSW 1009,7 60 0 0,0
14.12.2017 21:00:00 14,4 8,1 13,7 27 14 50 27 SSW 1010,7 60 0 0,0
14.12.2017 20:00:00 14,4 7,4 13,3 29 16 51 28 SSW 1010,9 60 0 0,0
14.12.2017 19:00:00 14,2 8,2 12,7 23 12 46 25 S 1011,0 60 0 0,0
14.12.2017 18:00:00 14,2 7,7 13,5 25 13 51 28 SSW 1011,7 60 0 0,0
14.12.2017 17:00:00 14,2 7,9 13,7 30 16 57 31 SSW 1011,9 60 0 0,0
14.12.2017 16:00:00 14,4 8,3 14,2 35 19 61 33 SSW 1011,6 10 0 0,0
14.12.2017 15:00:00 14,9 8,1 14,7 36 20 61 33 SSW 1011,1 58 0 0,0
14.12.2017 14:00:00 14,8 8,7 15,0 29 16 59 32 SSW 1011,4 10 0 0,0
14.12.2017 13:00:00 14,9 8,8 14,7 29 16 62 33 SSW 1012,7 55 0 0,0
14.12.2017 12:00:00 14,9 8,8 14,8 29 16 80 43 SSW 1013,6 57 0 0,0
14.12.2017 11:00:00 14,8 8,9 14,0 35 19 64 35 SSW 1014,2 10 0 0,0
14.12.2017 10:00:00 14,3 9,9 12,8 32 17 66 36 S 1013,6 51 0 0,0
14.12.2017 09:00:00 13,6 9,6 11,4 28 15 62 34 SSW 1013,6 10 0 0,2
14.12.2017 08:00:00 14,0 8,8 12,5 31 17 63 34 SSW 1013,7 10 0 0,0
14.12.2017 07:00:00 13,9 8,5 13,1 35 19 63 34 S 1012,5 44 0 0,0
14.12.2017 06:00:00 13,6 8,4 11,6 35 19 72 39 SSW 1013,5 10 0 0,0
14.12.2017 05:00:00 12,3 8,2 10,1 31 17 58 31 SSW 1014,1 10 0 0,2
14.12.2017 04:00:00 12,6 7,7 10,1 26 14 48 26 SSW 1014,9 10 0 0,2
14.12.2017 03:00:00 12,1 8,0 10,3 22 12 54 29 SSW 1015,6 10 0 0,0
14.12.2017 02:00:00 12,8 7,2 12,2 29 16 53 28 SSW 1015,9 52 0 0,0
14.12.2017 01:00:00 13,0 7,0 11,6 32 18 59 32 SSW 1016,5 59 0 0,0
14.12.2017 00:00:00 12,7 6,7 11,3 34 18 64 34 S 1016,8 10 0 0,0
13.12.2017 23:00:00 12,6 5,3 11,7 32 18 59 32 S 1016,9 60 0 0,0
13.12.2017 22:00:00 12,3 4,3 11,0 26 14 50 27 S 1018,0 60 0 0,0
13.12.2017 21:00:00 11,9 4,6 10,8 32 17 57 31 SSW 1018,2 60 0 0,0
13.12.2017 20:00:00 11,5 4,2 10,7 21 11 50 27 S 1018,4 60 0 0,0
13.12.2017 19:00:00 11,6 3,6 10,3 29 16 49 27 SSW 1018,8 60 0 0,0
13.12.2017 18:00:00 11,1 4,1 10,4 27 15 53 28 S 1019,4 60 0 0,0
13.12.2017 17:00:00 11,1 2,9 10,3 26 14 47 25 S 1019,8 10 0 0,0
13.12.2017 16:00:00 11,4 2,9 11,2 24 13 51 28 S 1019,7 10 46 0,0
13.12.2017 15:00:00 12,1 2,3 11,9 28 15 - - SSW 1019,3 10 - -
13.12.2017 14:00:00 12,6 2,7 12,4 31 17 61 33 SSW 1019,6 60 44 0,0
13.12.2017 13:00:00 13,3 2,2 13,4 30 16 60 33 SSW 1019,7 20 57 0,0
13.12.2017 12:00:00 13,5 3,3 15,6 29 16 50 27 SSW 1019,8 20 60 0,0
13.12.2017 11:00:00 13,4 1,4 13,1 26 14 50 27 SSW 1019,8 60 60 0,0
13.12.2017 10:00:00 12,7 -0,2 11,8 28 15 49 27 S 1019,3 60 58 0,0
13.12.2017 09:00:00 10,8 -0,7 8,6 22 12 39 21 S 1018,7 60 8 0,0
13.12.2017 08:00:00 9,6 0,7 7,9 17 9 32 17 SSW 1018,3 60 0 0,0
13.12.2017 07:00:00 9,8 2,2 8,6 20 11 41 22 S 1018,3 60 0 0,0
13.12.2017 06:00:00 10,0 1,1 9,0 23 13 47 25 SSW 1017,3 60 0 0,0
13.12.2017 05:00:00 10,4 3,2 9,2 26 14 43 23 SSW 1016,4 10 0 0,0
13.12.2017 04:00:00 10,5 4,0 9,8 21 11 43 23 S 1016,8 10 0 0,0
13.12.2017 03:00:00 10,5 5,5 9,7 22 12 41 22 SSW 1016,6 60 0 0,0
13.12.2017 02:00:00 10,8 6,3 10,1 16 9 40 21 SSW 1016,7 60 0 0,0
13.12.2017 01:00:00 11,5 7,0 10,5 21 11 38 20 SW 1016,8 60 0 0,0
13.12.2017 00:00:00 11,4 5,0 9,1 13 7 26 14 SSW 1016,4 60 0 0,0
12.12.2017 23:00:00 10,3 4,6 9,1 6 3 32 17 SSE 1015,8 60 0 0,0
12.12.2017 22:00:00 11,0 5,7 9,7 18 10 30 16 S 1015,7 60 0 0,0
12.12.2017 21:00:00 10,7 6,3 9,3 15 8 27 15 S 1016,1 10 0 0,0
12.12.2017 20:00:00 10,3 7,0 9,2 8 4 18 10 SSW 1015,8 10 0 0,0
12.12.2017 19:00:00 10,7 6,6 9,0 12 6 23 12 SSW 1015,1 60 0 0,0
12.12.2017 18:00:00 9,9 7,3 8,9 11 6 18 10 S 1014,6 10 0 1,4
12.12.2017 17:00:00 10,6 7,5 9,1 10 5 20 11 S 1013,8 15 0 0,6
12.12.2017 16:00:00 11,3 7,0 10,7 16 8 27 15 SSW 1013,1 59 0 0,2
12.12.2017 15:00:00 12,9 8,6 10,8 14 8 29 16 SSW 1012,5 23 0 0,4
12.12.2017 14:00:00 14,0 9,0 14,4 8 4 20 11 WSW 1011,6 38 0 0,0
12.12.2017 13:00:00 14,2 9,6 14,5 7 4 23 12 SW 1011,3 60 0 0,0
12.12.2017 12:00:00 14,3 9,5 13,8 9 5 21 11 WSW 1011,7 59 0 0,0
12.12.2017 11:00:00 13,6 9,6 13,5 8 4 20 11 S 1011,1 10 0 0,0
12.12.2017 10:00:00 13,0 9,6 11,5 7 4 20 11 S 1010,8 20 0 0,0
12.12.2017 09:00:00 11,6 9,5 10,9 8 4 23 12 E 1010,1 60 0 0,0
12.12.2017 08:00:00 12,1 9,3 10,6 11 6 22 12 SSW 1009,2 10 0 0,2
12.12.2017 07:00:00 12,3 9,1 10,8 14 7 23 12 SW 1008,3 12 0 0,2
12.12.2017 06:00:00 12,2 9,0 11,0 13 7 26 14 SSW 1007,3 10 0 0,0
12.12.2017 05:00:00 12,4 8,9 10,8 12 6 30 16 SSW 1006,4 57 0 0,0
12.12.2017 04:00:00 12,9 9,0 10,8 21 11 40 22 SW 1005,7 9 0 0,2
12.12.2017 03:00:00 13,1 9,2 11,5 25 14 46 25 SSW 1005,1 60 0 0,0
12.12.2017 02:00:00 12,9 10,1 11,4 23 13 61 33 SSW 1004,1 13 0 1,5
12.12.2017 01:00:00 13,3 10,5 11,6 28 15 61 33 SW 1003,5 3,5 0 3,6
12.12.2017 00:00:00 13,7 10,9 12,1 24 13 74 40 SW 1001,7 6 0 5,4
11.12.2017 23:00:00 14,8 11,9 13,0 23 12 73 39 SW 999,5 1,4 0 4,9
11.12.2017 22:00:00 16,2 11,1 13,2 36 19 109 59 SSW 997,5 6 0 1,4
11.12.2017 21:00:00 19,0 8,6 14,8 48 26 114 62 S 995,9 10 0 0,0
11.12.2017 20:00:00 19,7 6,8 18,9 54 29 115 62 SSW 995,2 10 0 0,2
11.12.2017 19:00:00 20,3 5,9 18,8 50 27 97 53 S 994,5 10 0 0,0
11.12.2017 18:00:00 19,7 5,7 17,9 42 23 100 54 S 994,8 60 0 0,0
11.12.2017 17:00:00 18,9 7,6 17,8 44 24 90 48 S 995,3 60 0 0,0
11.12.2017 16:00:00 18,4 8,4 17,2 49 26 106 57 S 995,3 59 0 0,0
11.12.2017 15:00:00 17,9 10,0 13,9 42 23 82 45 S 995,2 10 0 0,0
11.12.2017 14:00:00 18,0 10,1 15,3 39 21 95 51 S 995,8 10 0 0,0
11.12.2017 13:00:00 17,5 10,4 15,8 41 22 79 43 S 996,1 18 0 0,0
11.12.2017 12:00:00 17,7 10,1 15,4 39 21 87 47 S 996,8 10 0 0,0
11.12.2017 11:00:00 17,1 10,5 14,9 39 21 84 46 SSW 997,3 10 0 0,0
11.12.2017 10:00:00 17,4 9,6 13,7 40 21 82 44 S 997,0 43 0 0,2
11.12.2017 09:00:00 16,7 10,5 13,2 35 19 78 42 S 997,2 40 0 0,0
11.12.2017 08:00:00 15,2 12,0 13,1 36 19 63 34 SSW 997,7 6 0 0,6
11.12.2017 07:00:00 15,5 11,1 13,1 35 19 69 37 SSW 997,9 10 0 0,4
11.12.2017 06:00:00 15,6 11,0 13,0 29 16 72 39 SSW 998,0 10 0 0,8
11.12.2017 05:00:00 16,5 10,3 12,9 34 18 76 41 SSW 998,0 10 0 0,4
11.12.2017 04:00:00 16,9 9,8 15,1 35 19 75 40 SSW 999,3 10 0 0,0
11.12.2017 03:00:00 16,3 9,9 12,8 41 22 67 36 SSW 1000,4 43 0 0,4

tt = Température de l'air
td = dewpoint
tt 5cm = Température de l'air 5cm
ff = Vitesse du vent
fx = gusts
dd = Direction du vent
ppp = reduced air pressure
vv = visibility
sd = Ensoleillement
rr = Quantités de précipitations

stations d'obs. à proximité